Regional Weather Roundup
Issued by NWS Albany, NY

Home | Current Version | Previous Version | Text Only | Print | Product List | Glossary On
Versions: 1 2 3 4 5 6 7 8 9 10 11 12 13 14 15 16 17 18 19 20 21 22 23 24 25 26 27 28 29 30 31 32 33 34 35 36 37 38 39 40 41 42 43 44 45 46 47 48 49 50
000
ASUS41 KALY 250310
RWRALY

NEW YORK STATE HOURLY WEATHER ROUNDUP
NATIONAL WEATHER SERVICE ALBANY NY
1100 PM EDT FRI APR 24 2015

NOTE: "FAIR" INDICATES FEW OR NO CLOUDS BELOW 12,000 FEET WITH NO
SIGNIFICANT WEATHER AND/OR NO OBSTRUCTIONS TO VISIBILITY.

NYZ032-033-038>043-046>054-057>066-NYZ062>081-250400-
EAST


CITY           SKY/WX    TMP DP  RH WIND       PRES   REMARKS
ALBANY         CLOUDY    37  20  50 W9        29.91F WCI  30
GLENS FALLS    CLOUDY    38  21  50 W5        29.88S WCI  34
POUGHKEEPSIE   CLEAR     38  20  48 NW8       29.92F WCI  32
NEWBURGH       CLEAR     34  21  60 VRB5      29.93F WCI  30
MONTGOMERY     CLEAR     35  21  56 NW8       29.91F WCI  29
WHITE PLAINS   PTCLDY    36  19  50 NW13      29.89S WCI  27
ISLIP          PTCLDY    38  22  52 NW12G21   29.88S WCI  30
NEW YORK CITY  CLEAR     41  22  46 NW15G25   29.93R
CENTRAL PARK   CLEAR     41  20  43 MISG      29.95S
$$

NYZ005>009-017-018-044>046-055-056-250400-
CENTRAL


CITY           SKY/WX    TMP DP  RH WIND       PRES   REMARKS
FULTON         CLEAR     34  25  69 W10       29.96S WCI  26
SYRACUSE       CLEAR     33  22  63 W9        29.95F WCI  25
ROME           CLOUDY    30  23  75 NW5       29.95F WCI  25
ELMIRA         CLOUDY    39  23  52 VRB3      29.96S
BINGHAMTON     MOCLDY    31  21  66 NW5       29.91S WCI  26
MONTICELLO     CLEAR     28  19  69 NW7       29.90F WCI  21
$$

NYZ026>034-041>043-250400-
NORTH


CITY           SKY/WX    TMP DP  RH WIND       PRES   REMARKS
WATERTOWN      CLOUDY    38  26  62 CALM      29.93F
FORT DRUM      NOT AVBL
MASSENA        CLOUDY    37  22  54 NW8       29.91S WCI  31
SARANAC LAKE   CLOUDY    31  19  61 VRB6      29.81F WCI  25
PLATTSBURGH    CLOUDY    37  21  52 NW7       29.86S WCI  32
$$

NYZ001>004-010>016-019>021-250400-
WEST


CITY           SKY/WX    TMP DP  RH WIND       PRES   REMARKS
NIAGARA FALLS  CLEAR     34  24  67 N3        30.01S
BUFFALO        CLEAR     35  22  58 N6        30.00F WCI  30
DUNKIRK          N/A     32  24  72 S5        30.03S WCI  27
JAMESTOWN      CLEAR     32  18  55 W6        29.99S WCI  26
WELLSVILLE     CLEAR     31  19  61 NW10      29.95F WCI  22
ROCHESTER      CLEAR     35  23  61 NW9       30.00S WCI  28
PENN YAN       MOCLDY    36  23  59 NW6       29.97S WCI  31
$$

             KEY
       WCI = WIND CHILL INDEX
       VSB = VISIBILITY
       HX  = HEAT INDEX
$$



USA.gov is the U.S. government's official web portal to all federal, state and local government web resources and services.